Lakehurst, NJ

4:09 AM EST on February 14, 2016 (GMT -0500)
Lakehurst Naes

Weather History for KNEL - February, 2013

Change the Weather History Date:

Thursday, February 21, 2013

  Actual Average Record
Temperature  
Mean Temperature 30 °F -  
Max Temperature 36 °F 42 °F 70 °F (1997)
Min Temperature 24 °F 30 °F 19 °F (2012)
Degree Days  
Heating Degree Days 35    
Moisture  
Dew Point 12 °F    
Average Humidity 50    
Maximum Humidity 58    
Minimum Humidity 39    
Precipitation  
Precipitation 0.00 in - - ()
Sea Level Pressure  
Sea Level Pressure 30.07 in    
Wind  
Wind Speed 15 mph (WNW)    
Max Wind Speed 23 mph    
Max Gust Speed 40 mph    
Averages and records for this station are not official NWS values.
T = Trace of Precipitation, MM = Missing Value Source: NWS Daily Summary

Daily Weather History Graph

Daily Weather History Graph

Search for Another Location

Airport or City:

Trip Planner

Search our weather history database for the weather conditions in past years. The results will help you decide how hot, cold, wet, or windy it might be!

Date:

Astronomy

Feb. 21, 2013 Rise Set
Actual Time 6:41 AM EST 5:40 PM EST
Civil Twilight 6:14 AM EST 6:08 PM EST
Nautical Twilight 5:43 AM EST 6:39 PM EST
Astronomical Twilight 5:11 AM EST 7:10 PM EST
Moon 1:53 PM EST (2/21) 3:44 AM EST (2/21)
Length of Visible Light 11h 53m
Length of Day
10h 58m
Waxing Gibbous, 83% of the Moon is Illuminated
Feb 21
Waxing Gibbous
Feb 25
Full
Mar 4
Last Quarter
Mar 11
New
Mar 19
First Quarter

Hourly Weather History & Observations

Time (EST) Temp. Windchill Dew Point Humidity Pressure Visibility Wind Dir Wind Speed Gust Speed Precip Events Conditions
12:00 AM 25.0 °F 13.6 °F 10.0 °F 53% 30.03 in - WNW 12.7 mph 24.2 mph N/A   Clear
1:00 AM 25.0 °F 12.6 °F 10.0 °F 53% 30.03 in - WNW 15.0 mph 23.0 mph N/A   Clear
2:00 AM 24.1 °F 13.7 °F 10.0 °F 55% 30.03 in - WNW 10.4 mph - N/A   Clear
3:00 AM 24.1 °F 11.0 °F 10.0 °F 55% 30.01 in - WNW 16.1 mph 21.9 mph N/A   Clear
4:00 AM 24.1 °F 13.1 °F 10.9 °F 57% 30.02 in - WNW 11.5 mph - N/A   Scattered Clouds
5:00 AM 24.1 °F 12.0 °F 10.9 °F 57% 30.02 in - WNW 13.8 mph - N/A   Clear
6:00 AM 25.0 °F 11.7 °F 12.0 °F 58% 30.04 in - WNW 17.3 mph 24.2 mph N/A   Mostly Cloudy
7:00 AM 26.1 °F 13.6 °F 12.0 °F 55% 30.05 in - WNW 16.1 mph 23.0 mph N/A   Overcast
9:00 AM 28.9 °F 16.9 °F 10.0 °F 45% 30.05 in - NW 17.3 mph 29.9 mph N/A   Scattered Clouds
10:00 AM 30.0 °F 17.2 °F 10.0 °F 43% 30.06 in - WNW 20.7 mph 29.9 mph N/A   Scattered Clouds
12:00 PM 33.1 °F 20.6 °F 12.0 °F 42% 30.05 in - WNW 23.0 mph 33.4 mph N/A   Clear
1:00 PM 34.0 °F 23.8 °F 12.0 °F 40% 30.02 in - NW 16.1 mph 40.3 mph N/A   Clear
2:00 PM 35.1 °F 23.5 °F 12.9 °F 40% 30.02 in - WNW 21.9 mph 32.2 mph N/A   Clear
3:00 PM 36.0 °F 25.6 °F 12.9 °F 39% 30.03 in - WNW 18.4 mph 27.6 mph N/A   Clear
4:00 PM 36.0 °F 26.0 °F 12.9 °F 39% 30.04 in - WNW 17.3 mph 28.8 mph N/A   Clear
7:00 PM 32.0 °F 22.5 °F 14.0 °F 48% 30.16 in - NW 12.7 mph 21.9 mph N/A   Clear
8:30 PM - - - N/A% - - North - - N/A   Unknown
9:00 PM 28.9 °F 20.4 °F 14.0 °F 54% 30.25 in - NNW 9.2 mph 23.0 mph N/A   Clear
9:22 PM - - - N/A% - - North - - N/A   Unknown
10:00 PM 27.0 °F 16.7 °F 12.9 °F 56% 30.25 in - North 11.5 mph 18.4 mph N/A   Clear
11:00 PM 26.1 °F 17.6 °F 12.0 °F 55% 30.26 in - NW 8.1 mph - N/A   Clear